Wind_Speed
28 27 27 28 27 27 27 26 25 25 26 26 25 24 24 25 24 23 22 22 21 20 19 19 18 17 16 15 14 14 14 14 13 13 13 12 12 12 12 12 12 11 11 11
28 26 26 27 26 28 28 27 26 27 27 26 27 26 26 26 24 24 23 22 22 21 21 20 18 18 18 17 16 15 15 14 15 14 14 14 14 14 14 14 14 13 12 12
27 25 25 27 26 28 29 29 27 26 25 25 26 27 27 26 25 24 24 24 23 23 22 20 20 19 18 17 17 17 17 16 16 16 16 16 16 15 16 16 16 15 14 14
26 25 26 26 25 27 29 29 27 26 24 25 26 27 27 27 26 25 25 24 23 23 22 22 21 20 19 18 18 18 18 18 17 17 18 18 17 17 17 17 17 17 15 15
26 25 25 25 26 26 26 27 27 26 26 26 27 27 27 27 25 25 25 23 22 22 22 22 21 21 20 19 19 19 20 19 19 20 20 20 19 18 17 17 17 17 16 17
26 26 25 25 25 26 26 27 26 27 28 27 27 27 27 27 27 25 24 23 22 22 22 22 22 21 21 20 20 20 20 20 20 20 20 20 19 19 19 18 18 17 17 17
27 26 26 26 26 26 27 26 26 28 28 27 28 28 27 28 27 25 23 23 24 23 23 23 23 23 21 21 21 20 20 20 20 20 19 19 19 20 20 19 19 18 17 17
27 27 26 26 26 27 26 26 26 26 27 27 27 27 26 26 25 24 23 23 23 22 22 22 23 23 22 21 21 21 20 20 20 20 19 20 20 20 20 20 19 18 18 18
28 29 27 26 27 27 27 26 26 26 26 26 25 25 26 26 25 25 23 22 22 22 22 22 23 23 22 22 22 21 21 21 21 22 22 22 22 22 22 21 20 20 20 20
28 27 27 28 27 27 26 26 27 26 26 26 26 25 25 24 24 24 23 22 22 22 22 23 23 23 23 23 23 23 22 22 23 23 23 23 23 23 23 22 22 21 21 21
25 25 25 26 26 25 24 25 25 24 25 25 25 25 25 25 25 24 23 23 23 24 23 22 23 23 23 23 23 23 23 23 23 23 23 23 22 22 22 23 23 23 22 22
24 22 23 23 23 23 23 22 23 22 23 24 24 24 24 24 24 24 23 24 23 24 24 23 24 24 24 23 22 22 22 22 23 23 22 23 23 22 22 23 23 23 23 23
21 22 23 23 23 22 21 22 23 22 22 24 23 22 22 22 22 23 23 23 22 23 24 23 23 23 23 23 22 22 22 23 23 23 22 23 23 23 23 23 23 23 23 23
20 20 21 22 23 21 22 23 23 23 23 24 23 22 22 22 22 22 22 23 23 24 23 23 23 23 22 22 22 22 22 23 23 22 22 22 22 22 22 22 22 22 22 23
20 19 20 21 22 21 21 21 21 21 22 22 22 22 22 22 22 21 21 22 22 22 22 22 23 22 22 23 23 22 22 22 22 22 22 21 21 21 21 21 22 22 22 21
19 18 18 18 19 20 20 21 21 21 20 21 21 21 21 21 21 21 21 20 21 21 21 22 22 22 22 23 23 22 22 22 21 21 21 21 21 21 20 20 21 21 20 20
16 16 16 17 18 18 18 18 18 18 18 18 19 19 19 19 19 19 20 20 20 21 21 21 21 22 21 22 21 22 22 22 21 20 20 20 20 20 20 21 21 21 21 21
14 15 15 16 16 17 16 16 16 17 17 16 16 17 17 17 18 18 19 19 20 20 20 21 20 21 21 22 21 22 22 21 20 20 20 20 20 20 20 20 20 21 21 21
13 14 15 15 15 15 15 15 14 15 15 15 15 15 16 16 17 17 17 17 18 18 18 18 18 19 20 21 21 22 22 22 21 21 21 21 21 20 20 21 21 21 21 21
15 14 14 14 15 14 14 14 14 13 13 13 14 14 14 14 15 16 16 16 17 17 17 18 18 19 19 21 22 22 23 22 22 22 22 22 21 21 21 21 22 22 22 21
14 13 13 13 14 13 13 13 13 13 13 14 14 15 15 15 15 15 15 15 15 16 16 17 18 18 18 20 21 22 23 23 22 22 22 21 21 21 22 22 22 22 22 22
12 13 12 12 13 14 14 14 14 14 14 15 15 15 15 14 14 14 15 15 16 16 17 17 18 18 18 19 20 21 21 21 21 22 22 22 22 22 22 22 22 22 23 23
12 12 12 12 13 13 14 14 14 15 15 14 14 14 13 13 14 14 14 15 16 17 18 18 18 18 18 19 20 20 20 21 21 21 22 21 22 22 22 23 23 24 24 24
12 12 13 13 14 14 14 14 14 15 15 15 15 14 14 15 15 15 15 16 16 17 18 18 19 19 19 19 19 20 20 21 21 21 22 22 23 23 23 23 23 23 24 24
14 14 14 14 15 15 15 14 14 15 15 15 14 15 16 16 16 16 17 17 17 16 17 17 18 18 18 19 19 19 20 21 21 22 22 23 23 24 23 23 23 23 24 24
13 14 14 14 14 14 15 15 15 14 14 15 15 16 16 16 17 17 16 16 16 16 17 17 18 19 18 18 18 18 19 20 20 21 22 23 23 22 23 23 24 24 24 25
13 13 14 14 14 14 14 14 14 14 14 15 16 16 16 17 17 17 17 16 16 17 17 17 18 18 18 19 19 20 20 20 21 21 21 22 22 23 24 24 24 25 25 25
Wind_Direction
227 228 229 231 234 234 236 237 240 247 253 256 257 257 263 267 270 274 278 279 280 278 277 275 272 269 268 269 267 266 266 266 269 271 274 276 272 274 278 281 282 285 288 289
227 228 232 235 235 235 238 237 237 242 246 253 258 262 264 266 270 274 276 275 276 276 275 273 271 269 266 265 263 263 264 264 266 268 271 274 274 274 276 277 277 279 280 285
232 229 233 235 234 234 235 237 239 242 247 252 257 261 265 267 270 272 274 274 274 273 270 268 269 268 262 262 261 261 263 264 265 266 270 273 275 275 274 274 276 278 275 279
231 229 232 234 236 235 236 239 244 251 253 253 258 262 264 267 270 272 274 273 272 272 270 266 264 262 262 261 261 262 263 262 262 265 270 272 274 274 275 275 276 276 276 275
230 234 235 234 234 236 239 239 243 247 252 253 257 262 265 268 270 271 272 271 271 269 267 264 259 259 261 263 264 264 265 264 263 264 267 269 269 270 273 273 274 273 275 273
230 233 238 238 240 241 245 245 243 246 251 254 259 262 264 266 268 269 270 268 268 267 266 264 260 258 260 263 264 264 265 265 264 264 265 266 267 268 270 272 273 272 273 271
231 234 238 239 242 244 246 249 248 248 252 255 259 262 263 263 265 267 267 267 266 266 266 264 260 260 261 262 264 265 266 266 265 265 265 266 267 267 269 271 271 271 270 268
232 233 238 240 241 245 249 251 251 252 255 258 259 261 261 261 262 264 267 267 267 266 263 262 261 261 261 261 264 265 265 265 264 264 264 266 268 268 270 271 270 269 269 268
235 236 239 242 243 246 250 251 252 253 255 257 259 260 259 261 262 262 264 264 264 263 262 262 262 260 260 260 261 262 264 264 263 265 265 266 268 269 270 270 270 270 269 269
233 238 241 243 246 249 251 249 252 255 257 258 260 259 259 261 263 264 263 263 263 262 262 261 261 262 263 263 262 263 264 265 264 265 264 264 266 267 267 267 268 270 269 269
236 240 244 245 246 251 253 254 255 255 256 258 260 259 259 260 261 262 264 263 263 263 264 261 261 263 263 262 261 261 263 264 265 265 264 266 267 267 266 266 267 268 269 270
235 239 244 248 250 252 253 253 252 255 254 255 256 258 260 261 261 262 262 262 261 262 261 262 263 263 262 260 261 262 263 264 264 265 266 267 268 268 268 269 270 270 271 272
237 235 240 245 248 252 252 251 254 255 254 254 254 255 259 260 260 259 260 260 258 259 260 260 259 260 261 259 260 262 264 265 266 267 269 269 268 268 269 269 270 271 272 273
239 241 242 245 248 251 251 255 257 257 256 255 253 256 259 260 261 259 259 260 260 260 259 258 258 260 259 258 259 262 265 266 268 269 270 272 271 270 269 269 270 272 273 274
244 245 246 247 249 252 253 255 256 256 254 255 253 254 256 258 259 258 259 260 260 260 259 256 256 258 257 256 258 262 265 268 271 271 269 269 271 272 271 269 270 271 273 273
243 244 245 246 248 251 253 255 255 254 254 253 253 254 256 257 257 257 257 259 259 258 257 256 255 257 256 256 258 262 264 267 270 269 267 268 268 268 269 270 270 270 272 274
245 245 247 249 248 252 255 254 255 255 254 252 253 255 257 257 256 255 254 256 257 256 256 257 257 255 254 257 258 261 263 265 267 268 269 270 267 266 268 270 271 272 273 274
244 243 243 245 246 249 252 254 254 252 250 251 253 254 255 256 257 256 256 257 257 257 258 259 257 254 254 256 257 259 262 263 265 267 269 269 269 268 269 270 271 272 273 274
238 239 240 244 246 248 253 253 255 254 253 251 252 255 255 258 258 257 257 254 253 253 254 253 252 252 253 255 259 262 262 263 265 266 266 267 267 267 269 269 271 273 273 275
242 241 242 245 248 251 252 253 257 259 258 257 256 257 259 259 258 257 254 253 251 251 250 251 253 256 257 258 260 262 263 263 265 264 265 265 265 266 267 269 271 274 275 276
242 243 244 246 248 251 256 256 257 260 261 261 261 261 262 261 260 257 255 253 252 251 252 255 256 259 262 263 263 262 262 263 263 264 263 263 265 265 266 268 271 273 274 276
240 243 247 250 251 254 259 260 259 260 264 263 261 258 256 257 258 257 258 257 256 256 256 257 259 263 265 266 265 264 264 264 264 263 261 262 264 264 265 268 270 273 275 278
248 249 251 254 258 261 262 262 260 260 263 262 260 258 259 260 260 259 261 262 261 261 260 260 262 266 266 267 268 267 266 265 265 263 263 264 265 266 268 270 272 275 278 278
255 255 257 258 261 265 266 265 265 263 261 261 260 260 265 267 269 269 269 270 270 265 261 262 265 267 267 268 268 266 265 264 264 264 265 266 267 269 270 271 273 277 279 280
258 259 261 262 265 265 265 267 268 267 265 263 261 261 264 266 270 273 273 273 271 265 261 261 263 264 266 267 267 265 264 264 265 267 267 269 270 271 271 272 275 278 279 281
257 257 260 263 264 264 266 268 270 268 266 264 262 264 265 267 269 269 271 273 273 271 268 265 264 264 266 268 268 268 268 268 267 267 267 268 269 270 273 275 276 277 279 282
259 259 259 261 264 267 267 266 266 266 268 267 266 267 268 268 268 268 268 270 270 271 271 269 269 270 269 269 270 269 269 268 268 269 270 271 271 273 275 276 278 279 280 282
Height
5775 5779 5781 5785 5788 5791 5793 5795 5797 5799 5799 5799 5800 5801 5802 5803 5803 5803 5803 5803 5803 5803 5803 5802 5802 5803 5803 5804 5805 5805 5806 5807 5807 5808 5808 5809 5809 5809 5809 5809 5808 5808 5807 5807
5768 5772 5775 5778 5781 5784 5787 5789 5791 5793 5793 5793 5794 5796 5796 5796 5797 5797 5798 5798 5798 5798 5798 5797 5798 5799 5799 5800 5801 5802 5802 5803 5804 5804 5805 5805 5806 5806 5806 5806 5806 5805 5805 5805
5763 5766 5769 5772 5775 5778 5780 5782 5784 5786 5788 5789 5789 5790 5791 5792 5792 5792 5792 5792 5792 5792 5791 5791 5793 5794 5795 5796 5797 5798 5799 5800 5800 5801 5801 5802 5802 5802 5802 5802 5802 5802 5802 5801
5757 5760 5762 5768 5770 5772 5774 5775 5779 5780 5781 5782 5783 5784 5785 5786 5786 5786 5786 5786 5786 5787 5787 5787 5787 5789 5790 5791 5792 5793 5794 5795 5796 5797 5797 5798 5798 5798 5798 5798 5798 5798 5798 5798
5751 5754 5757 5761 5764 5766 5767 5769 5772 5774 5775 5775 5777 5778 5779 5779 5779 5780 5780 5780 5780 5781 5781 5782 5782 5784 5785 5786 5787 5788 5789 5790 5791 5792 5793 5793 5794 5794 5794 5794 5794 5793 5793 5793
5745 5748 5751 5755 5757 5759 5762 5763 5765 5766 5767 5769 5770 5771 5773 5773 5773 5773 5774 5774 5775 5775 5776 5777 5778 5778 5779 5781 5782 5783 5784 5785 5786 5787 5787 5788 5789 5789 5789 5789 5789 5789 5789 5789
5739 5742 5745 5748 5751 5753 5756 5758 5759 5760 5760 5761 5763 5764 5765 5765 5766 5767 5767 5768 5769 5769 5770 5771 5772 5773 5774 5775 5776 5777 5778 5779 5780 5781 5782 5783 5784 5784 5784 5784 5784 5784 5784 5784
5733 5736 5740 5742 5744 5747 5748 5750 5752 5753 5754 5755 5756 5757 5757 5758 5760 5761 5761 5762 5762 5763 5764 5765 5766 5768 5769 5770 5771 5772 5773 5774 5774 5775 5776 5777 5778 5779 5779 5779 5779 5779 5779 5779
5728 5731 5733 5734 5737 5739 5741 5743 5744 5745 5747 5748 5749 5750 5750 5751 5752 5753 5754 5755 5756 5756 5758 5759 5760 5762 5763 5764 5765 5766 5767 5768 5769 5770 5771 5772 5772 5773 5773 5773 5773 5774 5774 5774
5720 5723 5725 5728 5730 5732 5733 5735 5737 5738 5739 5740 5741 5742 5744 5744 5746 5747 5748 5749 5749 5750 5751 5753 5754 5755 5756 5758 5759 5760 5761 5762 5762 5763 5764 5765 5765 5766 5766 5767 5767 5767 5768 5768
5714 5717 5719 5721 5724 5725 5726 5728 5729 5731 5732 5732 5734 5735 5736 5737 5738 5739 5741 5742 5743 5744 5745 5746 5747 5749 5750 5751 5752 5753 5754 5755 5756 5757 5758 5758 5759 5759 5760 5760 5760 5761 5761 5761
5709 5712 5714 5716 5717 5719 5720 5720 5721 5722 5724 5725 5725 5727 5728 5729 5730 5732 5733 5734 5735 5737 5738 5739 5741 5742 5743 5744 5745 5746 5747 5748 5749 5749 5750 5751 5752 5752 5753 5753 5753 5754 5754 5754
5704 5706 5709 5710 5712 5712 5713 5714 5715 5716 5717 5718 5719 5719 5720 5721 5723 5724 5725 5726 5728 5729 5731 5733 5734 5735 5736 5737 5738 5740 5741 5741 5742 5742 5743 5744 5744 5745 5745 5746 5746 5746 5747 5747
5700 5702 5703 5705 5705 5707 5708 5709 5710 5710 5711 5711 5712 5713 5714 5715 5716 5717 5718 5719 5721 5722 5724 5726 5727 5728 5729 5730 5732 5733 5734 5734 5735 5735 5736 5737 5737 5737 5738 5739 5739 5739 5739 5739
5695 5696 5697 5699 5700 5701 5702 5703 5704 5704 5705 5705 5706 5706 5708 5709 5710 5711 5712 5713 5714 5716 5717 5718 5720 5721 5722 5724 5725 5726 5727 5727 5728 5728 5729 5730 5730 5730 5731 5732 5732 5732 5732 5732
5690 5691 5692 5693 5695 5695 5696 5697 5697 5698 5698 5699 5700 5701 5702 5703 5704 5705 5706 5707 5708 5709 5711 5712 5713 5714 5715 5717 5718 5719 5720 5721 5721 5721 5722 5723 5723 5724 5724 5725 5725 5725 5726 5726
5685 5687 5687 5689 5690 5690 5690 5690 5691 5692 5693 5693 5694 5695 5696 5697 5698 5699 5700 5701 5702 5703 5704 5706 5707 5708 5709 5710 5712 5713 5714 5714 5715 5715 5716 5716 5717 5717 5718 5718 5718 5719 5719 5719
5681 5682 5683 5684 5685 5686 5686 5686 5687 5688 5688 5689 5689 5690 5691 5692 5693 5694 5694 5695 5696 5697 5698 5699 5700 5701 5703 5704 5705 5706 5707 5708 5708 5709 5709 5710 5710 5710 5711 5711 5711 5712 5712 5712
5678 5679 5680 5681 5682 5682 5682 5683 5683 5684 5684 5685 5685 5686 5686 5687 5688 5688 5689 5689 5690 5691 5692 5693 5694 5696 5697 5697 5698 5699 5700 5701 5702 5702 5702 5703 5703 5704 5704 5704 5704 5705 5705 5705
5674 5675 5676 5677 5678 5679 5679 5679 5679 5680 5680 5681 5681 5682 5682 5682 5682 5683 5684 5684 5685 5686 5687 5688 5689 5690 5690 5691 5691 5692 5692 5693 5694 5695 5695 5696 5696 5697 5697 5697 5697 5698 5698 5698
5671 5672 5673 5673 5674 5675 5675 5676 5676 5676 5677 5677 5678 5678 5678 5678 5678 5679 5679 5680 5681 5681 5682 5683 5683 5684 5684 5684 5684 5685 5685 5685 5686 5687 5688 5689 5689 5690 5691 5691 5691 5691 5691 5690
5668 5669 5670 5670 5671 5671 5672 5672 5672 5673 5673 5673 5673 5673 5674 5674 5674 5675 5675 5676 5676 5677 5677 5678 5678 5678 5678 5678 5678 5678 5678 5678 5679 5680 5681 5682 5683 5684 5684 5684 5684 5684 5684 5683
5665 5666 5666 5667 5668 5668 5668 5669 5669 5669 5669 5669 5669 5670 5670 5670 5670 5671 5671 5672 5672 5672 5672 5673 5673 5673 5673 5672 5672 5672 5672 5672 5673 5674 5674 5676 5676 5677 5677 5678 5678 5677 5677 5676
5662 5663 5663 5664 5664 5665 5665 5665 5665 5665 5665 5666 5666 5666 5666 5667 5667 5666 5666 5667 5667 5666 5667 5667 5667 5667 5667 5667 5667 5666 5666 5667 5667 5668 5668 5669 5670 5670 5671 5671 5670 5670 5670 5669
5658 5659 5659 5660 5660 5661 5661 5661 5661 5661 5661 5662 5662 5662 5662 5662 5663 5663 5662 5662 5662 5662 5662 5662 5662 5662 5662 5662 5661 5661 5661 5661 5662 5662 5662 5663 5663 5663 5664 5664 5664 5663 5663 5662
5654 5655 5656 5656 5657 5657 5657 5657 5657 5657 5657 5657 5658 5658 5658 5658 5658 5658 5658 5657 5657 5657 5657 5657 5657 5657 5656 5656 5656 5656 5656 5655 5655 5656 5656 5656 5656 5656 5657 5657 5656 5656 5655 5654
5651 5651 5652 5652 5652 5653 5653 5653 5653 5653 5653 5653 5653 5653 5653 5653 5653 5653 5653 5653 5653 5652 5652 5652 5652 5651 5651 5651 5650 5650 5650 5650 5649 5649 5649 5649 5649 5649 5649 5649 5649 5648 5647 5646